Back to catalog

STARLINK-3548

AliveCommunicationsVLEO
NORAD 51864·PAYLOAD·🇺🇸 United States

Launched Mar 3, 2022 from Cape Canaveral Space Force Station

Loading…

Next Passes (next 24 hours)

TLE

FreshSource: CelesTrak SupGP

Epoch: Sep 14, 2026, 22:11 UTC

1 51864C 22022N   26257.92479167  .00020973  00000+0  61951-3 0  2571
2 51864  53.1594 229.4361 0001339  95.1524 264.8371 15.34386731    15

Track STARLINK-3548 in real time with AllMySat

Download on the App Store